GJVV0G Weather Reports


time (UTC)temp
C
wind
direction
speed
KPH
gust
KPH
rain 1hr
cm
rain 24hr
cm
rain mn
cm
humidity
%
barometer
mb
20260504011027 17 348 4.8 6.4 0.00 0.00 0.00 34 1007.1
20260504010028 17 336 0.0 0.0 0.00 0.00 0.00 36 1006.9
20260504005028 19 360 0.0 4.8 0.00 0.00 0.00 31 1006.8
20260504003027 18 334 1.6 3.2 0.00 0.00 0.00 37 1006.7
20260504002027 18 343 3.2 6.4 0.00 0.00 0.00 37 1006.6
20260504001028 21 342 3.2 6.4 0.00 0.00 0.00 31 1006.4
20260503234027 21 339 0.0 1.6 0.00 0.00 0.00 30 1006.6
20260503232027 21 96 3.2 8.0 0.00 0.00 0.00 28 1006.4
20260503231030 21 157 9.7 16.1 0.00 0.00 0.00 30 1006.4
20260503230044 21 141 6.4 11.3 0.00 0.00 0.00 30 1006.4
20260503225129 21 173 3.2 9.7 0.00 0.00 0.00 30 1006.4
20260503224143 21 150 9.7 14.5 0.00 0.00 0.00 30 1006.4
20260503223127 21 109 1.6 8.0 0.00 0.00 0.00 28 1006.3
20260503215127 21 144 4.8 8.0 0.00 0.00 0.00 31 1006.4
20260503214128 21 150 11.3 17.7 0.00 0.00 0.00 31 1006.4
20260503212227 21 150 4.8 8.0 0.00 0.00 0.00 30 1006.6
20260503211228 21 88 0.0 1.6 0.00 0.00 0.00 30 1006.6
20260503210326 21 117 4.8 11.3 0.00 0.00 0.00 30 1006.9
20260503205326 21 177 6.4 11.3 0.00 0.00 0.00 29 1007.0
20260503204328 21 144 16.1 22.5 0.00 0.00 0.00 31 1006.7
20260503203427 21 32 4.8 17.7 0.00 0.00 0.00 32 1006.7
20260503202428 21 326 0.0 3.2 0.00 0.00 0.00 33 1006.9
20260503201429 21 173 9.7 20.9 0.00 0.00 0.00 34 1007.1
20260503195427 21 165 6.4 12.9 0.00 0.00 0.00 33 1006.8
20260503194443 21 174 9.7 14.5 0.00 0.00 0.00 36 1006.9
20260503193527 21 129 8.0 17.7 0.00 0.00 0.00 34 1006.7
20260503192627 21 45 8.0 8.0 0.00 0.00 0.00 35 1007.0
20260503191630 21 146 12.9 17.7 0.00 0.00 0.00 35 1007.0
20260503190727 21 186 4.8 8.0 0.00 0.00 0.00 37 1007.1
20260503190628 21 174 8.0 11.3 0.00 0.00 0.00 38 1007.1
20260503185644 20 93 0.0 3.2 0.00 0.00 0.00 38 1007.2
20260503184726 20 11 6.4 14.5 0.00 0.00 0.00 37 1007.3
20260503183743 20 157 3.2 8.0 0.00 0.00 0.00 36 1007.4
20260503182728 20 164 11.3 19.3 0.00 0.00 0.00 38 1007.4
20260503181727 20 173 6.4 8.0 0.00 0.00 0.00 39 1007.5
20260503174727 18 276 1.6 4.8 0.00 0.00 0.00 39 1007.9
20260503172727 18 279 3.2 8.0 0.00 0.00 0.00 39 1008.0
20260503171728 18 67 8.0 9.7 0.00 0.00 0.00 41 1008.0
20260503170827 18 247 0.0 0.0 0.00 0.00 0.00 40 1008.0
20260503150926 16 334 4.8 17.7 0.00 0.00 0.00 40 1008.7
20260503140126 15 290 11.3 14.5 0.00 0.00 0.00 46 1009.1
20260503131328 13 277 1.6 4.8 0.00 0.00 0.00 48 1009.7
20260503130327 13 18 11.3 22.5 0.00 0.00 0.00 49 1009.6
20260503110427 12 314 3.2 11.3 0.00 0.00 0.00 48 1009.6
20260503080827 -17 0 0.0 0.0 0.00 0.00 0.00 100
20260503072827 -17 0 0.0 0.0 0.00 0.00 0.00 100
20260503072742 -17 0 0.0 0.0 0.00 0.00 0.00 100
20260503071826 12 180 4.8 4.8 0.00 0.00 0.00 41 1012.7
20260503070828 12 292 6.4 6.4 0.00 0.00 0.00 42 1012.8
20260503054919 12 315 0.0 0.0 0.00 0.00 0.00 46 1013.4
20260503054017 11 279 1.6 1.6 0.00 0.00 0.00 53 1013.3
20260503053017 9 337 4.8 4.8 0.00 0.00 0.00 59 1013.6
20260503052018 9 337 1.6 1.6 0.00 0.00 0.00 60 1013.6
20260503051116 9 337 4.8 4.8 0.00 0.00 0.00 61 1013.7
20260503045127 9 315 4.8 4.8 0.00 0.00 0.00 59 1013.7
20260503044226 9 337 1.6 1.6 0.00 0.00 0.00 59 1013.7
20260503043226 9 337 3.2 3.2 0.00 0.00 0.00 60 1013.8
20260503042226 9 337 6.4 6.4 0.00 0.00 0.00 62 1014.0
20260503041242 -17 0 0.0 0.0 0.00 0.00 0.00 100
20260503035329 -17 0 0.0 0.0 0.00 0.00 0.00 100
20260503034327 -17 0 0.0 0.0 0.00 0.00 0.00 100
20260503033328 -17 0 0.0 0.0 0.00 0.00 0.00 100
20260503032326 10 337 4.8 4.8 0.00 0.00 0.00 58 1014.5
20260503031425 10 315 6.4 8.0 0.00 0.00 0.00 60 1014.4
20260503031342 -17 0 0.0 0.0 0.00 0.00 0.00 100
20260503030327 10 337 3.2 3.2 0.00 0.00 0.00 58 1014.7
20260503025327 11 337 4.8 4.8 0.00 0.00 0.00 55 1014.7
20260503024327 11 319 0.0 6.4 0.00 0.00 0.00 55 1014.8
20260503023425 11 252 1.6 4.8 0.00 0.00 0.00 58 1014.8
20260503022428 -17 0 0.0 0.0 0.00 0.00 0.00 100
20260503021426 -17 0 0.0 0.0 0.00 0.00 0.00 100
20260503020514 11 337 0.0 0.0 0.00 0.00 0.00 56 1014.9
20260503015516 11 360 4.8 4.8 0.00 0.00 0.00 54 1014.9
20260503014613 11 337 4.8 4.8 0.00 0.00 0.00 52 1014.9
20260503012616 11 22 0.0 0.0 0.00 0.00 0.00 54 1014.9